• In Hungary
  • List of Countries
  • For 7 days
  • Water Temperature
  • Satellite Maps
  • Weather Map
  • News
  • Weather Widgets
  • user-avatar
    Login

    Hourly Weather Radowice

    Today, 26 September, Wednesday

    Time Temperature Precipitation Wind Pressure Humidity
    00:00 +7°C° 0 mm 2 mps 772 mmHg 71%
    01:00 +6°C° 0 mm 2 mps 772 mmHg 71%
    02:00 +6°C° 0 mm 2 mps 772 mmHg 72%
    03:00 +6°C° 0 mm 2 mps 772 mmHg 73%
    04:00 +6°C° 0 mm 2 mps 771 mmHg 74%
    05:00 +5°C° 0 mm 3 mps 771 mmHg 71%
    06:00 +5°C° 0 mm 3 mps 771 mmHg 69%
    07:00 +6°C° 0 mm 4 mps 771 mmHg 67%
    08:00 +7°C° 0 mm 4 mps 771 mmHg 60%
    09:00 +9°C° 0 mm 5 mps 770 mmHg 54%
    10:00 +12°C° 0 mm 5 mps 770 mmHg 47%
    11:00 +13°C° 0 mm 5 mps 769 mmHg 44%
    12:00 +14°C° 0 mm 6 mps 769 mmHg 41%
    13:00 +15°C° 0 mm 6 mps 768 mmHg 38%
    14:00 +15°C° 0 mm 6 mps 768 mmHg 38%
    15:00 +15°C° 0 mm 5 mps 767 mmHg 39%
    16:00 +15°C° 0 mm 5 mps 766 mmHg 40%
    17:00 +15°C° 0 mm 5 mps 766 mmHg 42%
    18:00 +14°C° 0 mm 5 mps 766 mmHg 43%
    19:00 +14°C° 0 mm 5 mps 766 mmHg 45%
    20:00 +14°C° 0 mm 5 mps 766 mmHg 46%
    21:00 +14°C° 0 mm 5 mps 766 mmHg 47%
    22:00 +14°C° 0 mm 5 mps 766 mmHg 48%
    23:00 +14°C° 0 mm 5 mps 766 mmHg 51%

    Tomorrow, 27 September, Thursday

    Time Temperature Precipitation Wind Pressure Humidity
    00:00 +14°C° 0 mm 5 mps 765 mmHg 54%
    01:00 +14°C° 0 mm 5 mps 765 mmHg 57%
    02:00 +13°C° 0 mm 5 mps 765 mmHg 59%
    03:00 +13°C° 0 mm 5 mps 765 mmHg 61%
    04:00 +13°C° 0 mm 5 mps 765 mmHg 63%
    05:00 +13°C° 0 mm 5 mps 765 mmHg 65%
    06:00 +12°C° 0 mm 5 mps 765 mmHg 67%
    07:00 +12°C° 0 mm 5 mps 765 mmHg 70%
    08:00 +14°C° 0 mm 5 mps 765 mmHg 67%
    09:00 +15°C° 0 mm 4 mps 765 mmHg 65%
    10:00 +18°C° 0 mm 4 mps 765 mmHg 63%
    11:00 +19°C° 0 mm 4 mps 765 mmHg 62%
    12:00 +20°C° 0 mm 4 mps 764 mmHg 60%
    13:00 +21°C° 0 mm 4 mps 764 mmHg 58%
    14:00 +22°C° 0 mm 4 mps 763 mmHg 59%
    15:00 +22°C° 0 mm 4 mps 763 mmHg 59%
    16:00 +22°C° 0 mm 3 mps 762 mmHg 60%
    17:00 +20°C° 0 mm 3 mps 762 mmHg 66%
    18:00 +19°C° 0 mm 3 mps 761 mmHg 72%
    19:00 +18°C° 0 mm 3 mps 761 mmHg 78%
    20:00 +17°C° 0 mm 3 mps 761 mmHg 77%
    21:00 +17°C° 0 mm 3 mps 760 mmHg 77%
    22:00 +17°C° 0 mm 3 mps 760 mmHg 76%
    23:00 +16°C° 0 mm 3 mps 760 mmHg 74%

    Day after tomorrow, 28 September, Friday

    Time Temperature Precipitation Wind Pressure Humidity
    00:00 +15°C° 0 mm 4 mps 759 mmHg 72%
    01:00 +15°C° 0 mm 4 mps 758 mmHg 69%
    02:00 +14°C° 0 mm 4 mps 758 mmHg 69%
    03:00 +13°C° 0 mm 4 mps 758 mmHg 68%
    04:00 +13°C° 0 mm 4 mps 757 mmHg 67%
    05:00 +12°C° 0 mm 4 mps 758 mmHg 69%
    06:00 +12°C° 0 mm 4 mps 758 mmHg 71%
    07:00 +12°C° 0 mm 4 mps 758 mmHg 73%
    08:00 +13°C° 0 mm 4 mps 759 mmHg 72%
    09:00 +13°C° 0 mm 4 mps 759 mmHg 71%
    10:00 +14°C° 0 mm 4 mps 759 mmHg 70%
    11:00 +14°C° 0 mm 4 mps 760 mmHg 63%
    12:00 +15°C° 0 mm 4 mps 760 mmHg 57%
    13:00 +17°C° 0 mm 4 mps 760 mmHg 50%
    14:00 +15°C° 0 mm 4 mps 760 mmHg 49%
    15:00 +15°C° 0 mm 4 mps 760 mmHg 48%
    16:00 +15°C° 0 mm 4 mps 760 mmHg 46%
    17:00 +14°C° 0 mm 3 mps 760 mmHg 51%
    18:00 +13°C° 0 mm 3 mps 760 mmHg 56%
    19:00 +13°C° 0 mm 2 mps 761 mmHg 60%
    20:00 +12°C° 0 mm 2 mps 761 mmHg 63%
    21:00 +12°C° 0 mm 2 mps 762 mmHg 66%
    22:00 +10°C° 0 mm 2 mps 762 mmHg 69%
    23:00 +10°C° 0 mm 2 mps 762 mmHg 72%

    29 September, Saturday

    Time Temperature Precipitation Wind Pressure Humidity
    00:00 +9°C° 0 mm 2 mps 762 mmHg 76%
    01:00 +8°C° 0 mm 2 mps 763 mmHg 79%
    02:00 +8°C° 0 mm 2 mps 763 mmHg 79%
    03:00 +7°C° 0 mm 2 mps 763 mmHg 79%
    04:00 +7°C° 0 mm 2 mps 763 mmHg 79%
    05:00 +7°C° 0 mm 2 mps 764 mmHg 77%
    06:00 +7°C° 0 mm 2 mps 764 mmHg 75%
    07:00 +7°C° 0 mm 2 mps 765 mmHg 73%
    08:00 +9°C° 0 mm 2 mps 765 mmHg 66%
    09:00 +10°C° 0 mm 2 mps 765 mmHg 59%
    10:00 +13°C° 0 mm 2 mps 766 mmHg 52%
    11:00 +14°C° 0 mm 2 mps 766 mmHg 48%
    12:00 +15°C° 0 mm 2 mps 766 mmHg 43%
    13:00 +16°C° 0 mm 2 mps 766 mmHg 39%
    14:00 +15°C° 0 mm 2 mps 766 mmHg 39%
    15:00 +15°C° 0 mm 2 mps 765 mmHg 39%
    16:00 +15°C° 0 mm 1 mps 765 mmHg 39%
    17:00 +14°C° 0 mm 1 mps 766 mmHg 44%
    18:00 +12°C° 0 mm 1 mps 766 mmHg 49%
    19:00 +10°C° 0 mm 0 mps 766 mmHg 54%
    20:00 +9°C° 0 mm 0 mps 766 mmHg 56%
    21:00 +9°C° 0 mm 0 mps 766 mmHg 57%
    22:00 +8°C° 0 mm 0 mps 766 mmHg 59%
    23:00 +8°C° 0 mm 0 mps 766 mmHg 60%

    30 September, Sunday

    Time Temperature Precipitation Wind Pressure Humidity
    00:00 +9°C° 0 mm 1 mps 766 mmHg 61%
    01:00 +9°C° 0 mm 1 mps 766 mmHg 62%
    02:00 +8°C° 0 mm 1 mps 765 mmHg 63%
    03:00 +8°C° 0 mm 1 mps 765 mmHg 64%
    04:00 +8°C° 0 mm 1 mps 765 mmHg 65%
    05:00 +8°C° 0 mm 1 mps 765 mmHg 65%
    06:00 +8°C° 0 mm 1 mps 765 mmHg 65%
    07:00 +8°C° 0 mm 1 mps 764 mmHg 65%
    08:00 +9°C° 0 mm 2 mps 764 mmHg 58%
    09:00 +12°C° 0 mm 2 mps 764 mmHg 51%
    10:00 +14°C° 0 mm 2 mps 764 mmHg 44%
    11:00 +15°C° 0 mm 2 mps 763 mmHg 41%
    12:00 +16°C° 0 mm 2 mps 763 mmHg 38%
    13:00 +17°C° 0 mm 2 mps 762 mmHg 35%
    14:00 +17°C° 0 mm 2 mps 761 mmHg 36%
    15:00 +16°C° 0 mm 2 mps 761 mmHg 37%
    16:00 +16°C° 0 mm 3 mps 760 mmHg 38%
    17:00 +15°C° 0 mm 2 mps 760 mmHg 42%
    18:00 +13°C° 0 mm 2 mps 760 mmHg 47%
    19:00 +10°C° 0 mm 2 mps 760 mmHg 51%
    20:00 +10°C° 0 mm 2 mps 759 mmHg 53%
    21:00 +9°C° 0 mm 2 mps 759 mmHg 54%
    22:00 +9°C° 0 mm 2 mps 759 mmHg 55%
    23:00 +8°C° 0 mm 2 mps 758 mmHg 57%

    1 October, Monday

    Time Temperature Precipitation Wind Pressure Humidity
    00:00 +9°C° 0 mm 1 mps 758 mmHg 58%
    01:00 +8°C° 0 mm 1 mps 757 mmHg 60%
    02:00 +8°C° 0 mm 1 mps 757 mmHg 60%
    03:00 +8°C° 0 mm 1 mps 756 mmHg 61%
    04:00 +8°C° 0 mm 1 mps 756 mmHg 62%
    05:00 +8°C° 0 mm 1 mps 755 mmHg 62%
    06:00 +8°C° 0 mm 1 mps 755 mmHg 62%
    07:00 +8°C° 0 mm 1 mps 755 mmHg 63%
    08:00 +10°C° 0 mm 1 mps 755 mmHg 56%
    09:00 +12°C° 0 mm 1 mps 754 mmHg 50%
    10:00 +14°C° 0 mm 1 mps 754 mmHg 44%
    11:00 +15°C° 0 mm 2 mps 754 mmHg 42%
    12:00 +16°C° 0 mm 2 mps 754 mmHg 39%
    13:00 +17°C° 0 mm 2 mps 754 mmHg 36%
    14:00 +17°C° 0 mm 2 mps 753 mmHg 38%
    15:00 +16°C° 0 mm 2 mps 753 mmHg 39%
    16:00 +16°C° 0 mm 3 mps 753 mmHg 40%
    17:00 +14°C° 0 mm 3 mps 754 mmHg 46%
    18:00 +13°C° 0 mm 2 mps 754 mmHg 52%
    19:00 +12°C° 0 mm 2 mps 754 mmHg 58%
    20:00 +10°C° 0 mm 2 mps 755 mmHg 65%
    21:00 +10°C° 0 mm 3 mps 755 mmHg 71%
    22:00 +9°C° 0 mm 3 mps 755 mmHg 78%
    23:00 +9°C° 0 mm 3 mps 756 mmHg 83%
    Show more